(171454) = 2006 GV27 = 2007 PP32 = 2007 SM17

Discovered at Anderson Mesa on 2007-09-18 by LONEOS.

Orbit

Orbit type: Main Belt

Note: WebGL enabled browser required.

epoch2024-03-31.0
epoch JD2460400.5
perihelion date2022-07-10.20341
perihelion JD2459770.70341
argument of perihelion (°)299.83305
ascending node (°)53.42000
inclination (°)7.34071
eccentricity0.1681085
perihelion distance (AU)2.0016466
Tisserand w.r.t. Jupiter3.5
ΔV w.r.t. Earth (km/sec)9.1
semimajor axis (AU)2.4061390
mean anomaly (°)166.31180
mean daily motion (°/day)0.26407230
aphelion distance (AU)2.811
period (years)3.73
P-vector [x]0.98736525
P-vector [y]-0.05981400
P-vector [z]-0.14673835
Q-vector [x]0.12075877
Q-vector [y]0.88361537
Q-vector [z]0.45237285
absolute magnitude16.43
phase slope0.15
uncertainty0
referenceMPEC 2024-F28
observations used1242
oppositions16
arc length (days)8021
first opposition used2002
last opposition used2024
residual rms (arc-secs)0.60
perturbers coarse indicatorM-v
perturbers precise indicator003Ek
first observation date used2002-04-02.0
last observation date used2024-03-18.0
computer nameMPCLINUX
JD of orbit computation2456406.202006
perihelion JD uncertainty (days)8.5917E-05
argument of perihelion uncertainty (°)3.7312E-05
ascending node uncertainty (°)3.2755E-05
inclination uncertainty (°)6.6888E-06
eccentricity uncertainty 6.7699E-08
perihelion distance uncertainty (AU)1.5219E-07
Minimum Orbit Intersection Distances (in AU)
for orbit epoch: 2460400.5, reference: E2024-GF4
Mercury1.62122
Venus1.27623
Earth1.00916
Mars0.62186
Jupiter2.63996
Saturn6.50085
Uranus15.6493
Neptune27.6018

Observations

1266 total observations over interval: 2002 04 02.49074 – 2024 03 18.172966
These data are available for download (format description).

Date (UT) J2000 RA J2000 Dec Magn Location Ref
2002 04 02.49074 12 54 32.63 +02 25 27.0 19.6 R 644 – Palomar Mountain/NEAT MPS 222591
2002 04 02.50131 12 54 31.95 +02 25 30.1 20.2 R 644 – Palomar Mountain/NEAT MPS 222591
2002 04 02.51198 12 54 31.37 +02 25 32.2 20.5 R 644 – Palomar Mountain/NEAT MPS 222591
2002 04 15.22098 12 42 26.22 +03 13 05.8 20.3 R 644 – Palomar Mountain/NEAT MPS 222591
2002 04 15.30178 12 42 21.66 +03 13 20.4   644 – Palomar Mountain/NEAT MPS 222591
2002 04 15.36480 12 42 18.13 +03 13 31.7 19.7 R 644 – Palomar Mountain/NEAT MPS 222591
2002 05 10.20084 12 24 52.58 +03 41 19.0 20.1 R 644 – Palomar Mountain/NEAT MPS 222591
2003 09 19.12170 21 28 54.33 -28 14 33.9 18.9   644 – Palomar Mountain/NEAT MPS 222591
2003 09 19.14348 21 28 53.92 -28 14 28.9 18.6   644 – Palomar Mountain/NEAT MPS 222591
2003 09 19.16521 21 28 53.50 -28 14 23.6 18.5   644 – Palomar Mountain/NEAT MPS 222591
2004 12 12.426177 09 17 15.040 +25 12 47.51 20.87 V 645 – Apache Point-Sloan Digital Sky Survey MPS 390130
2004 12 12.429649 09 17 15.016 +25 12 48.49 21.68   645 – Apache Point-Sloan Digital Sky Survey MPS 390130
2006 04 02.35760 14 43 20.94 -11 25 14.0 20.4 V 691 – Steward Observatory, Kitt Peak-Spacewatch MPS 168900
2006 04 02.37489 14 43 20.31 -11 25 12.2 21.7 V 691 – Steward Observatory, Kitt Peak-Spacewatch MPS 168900
2006 04 02.39219 14 43 19.54 -11 25 10.2 20.4 V 691 – Steward Observatory, Kitt Peak-Spacewatch MPS 168900
2006 04 07.34260 14 39 45.87 -11 15 16.1 20.3 V 691 – Steward Observatory, Kitt Peak-Spacewatch MPS 168900
2006 04 07.35992 14 39 45.03 -11 15 13.7 20.3 V 691 – Steward Observatory, Kitt Peak-Spacewatch MPS 168900
2006 04 07.37724 14 39 44.17 -11 15 11.7 20.4 V 691 – Steward Observatory, Kitt Peak-Spacewatch MPS 168900
2006 04 26.22114 14 22 19.23 -10 27 52.9 20.0 V 691 – Steward Observatory, Kitt Peak-Spacewatch MPS 222591
2006 04 26.23855 14 22 18.10 -10 27 50.0 20.1 V 691 – Steward Observatory, Kitt Peak-Spacewatch MPS 222591
2006 04 26.26281 14 22 16.59 -10 27 46.3 20.0 V 691 – Steward Observatory, Kitt Peak-Spacewatch MPS 222591
2006 05 24.28737 13 56 22.70 -09 34 15.7 20.3 V G96 – Mt. Lemmon Survey MPS 222591
2006 05 24.29409 13 56 22.38 -09 34 15.2 20.4 V G96 – Mt. Lemmon Survey MPS 222591
2006 05 24.30090 13 56 22.09 -09 34 15.1 20.4 V G96 – Mt. Lemmon Survey MPS 222591
2006 05 24.30770 13 56 21.76 -09 34 14.6 20.3 V G96 – Mt. Lemmon Survey MPS 222591
2007 08 08.34567 01 40 22.13 +00 46 31.4 19.9   704 – Lincoln Laboratory ETS, New Mexico MPS 213214
2007 08 08.35713 01 40 22.77 +00 46 34.3 20.0   704 – Lincoln Laboratory ETS, New Mexico MPS 213214
2007 08 08.37979 01 40 23.74 +00 46 39.2 19.7   704 – Lincoln Laboratory ETS, New Mexico MPS 213214
2007 08 11.35618 01 42 40.78 +00 55 22.7 19.5 C 704 – Lincoln Laboratory ETS, New Mexico MPS 291375
2007 08 11.36781 01 42 41.26 +00 55 24.9 19.4 C 704 – Lincoln Laboratory ETS, New Mexico MPS 291375
2007 08 11.37942 01 42 41.77 +00 55 26.9 19.1 C 704 – Lincoln Laboratory ETS, New Mexico MPS 291375
2007 08 12.38807 01 43 24.95 +00 58 09.8 19.3   704 – Lincoln Laboratory ETS, New Mexico MPS 213214
2007 08 12.39999 01 43 25.46 +00 58 11.9 19.6   704 – Lincoln Laboratory ETS, New Mexico MPS 213214
2007 08 12.41188 01 43 25.99 +00 58 13.2 19.6   704 – Lincoln Laboratory ETS, New Mexico MPS 213214
2007 08 12.42377 01 43 26.38 +00 58 14.3 19.8   704 – Lincoln Laboratory ETS, New Mexico MPS 213214
2007 08 12.43565 01 43 26.84 +00 58 16.4 20.1   704 – Lincoln Laboratory ETS, New Mexico MPS 213214
2007 09 18.29143 01 47 28.26 +01 08 35.3 19.2   704 – Lincoln Laboratory ETS, New Mexico MPS 252404
2007 09 18.30303 01 47 27.84 +01 08 34.8 19.4   704 – Lincoln Laboratory ETS, New Mexico MPS 252404
2007 09 18.31463 01 47 27.38 +01 08 33.9 19.3   704 – Lincoln Laboratory ETS, New Mexico MPS 252404
2007 09 18.32618 01 47 27.03 +01 08 33.4 19.9   704 – Lincoln Laboratory ETS, New Mexico MPS 252404
2007 09 18.33778 01 47 26.62 +01 08 31.9 19.3   704 – Lincoln Laboratory ETS, New Mexico MPS 252404
2007 09 18.35192 01 47 26.24 +01 08 31.4 18.1 R 699 – Lowell Observatory-LONEOS MPS 218847
2007 09 18.37387 01 47 25.53 +01 08 28.6   699 – Lowell Observatory-LONEOS MPS 218847
2007 09 18.39580 01 47 24.79 +01 08 26.3   699 – Lowell Observatory-LONEOS MPS 218847
2007 09 18.41775 01 47 24.01 +01 08 24.7   699 – Lowell Observatory-LONEOS MPS 218847
2007 09 21.28789 01 45 45.91 +01 03 42.3 18.7   704 – Lincoln Laboratory ETS, New Mexico MPS 252404
2007 09 21.31220 01 45 44.93 +01 03 38.9 18.9   704 – Lincoln Laboratory ETS, New Mexico MPS 252404
2007 09 21.32439 01 45 44.49 +01 03 37.7 19.2   704 – Lincoln Laboratory ETS, New Mexico MPS 252404
2007 09 21.33663 01 45 44.01 +01 03 36.9 18.9   704 – Lincoln Laboratory ETS, New Mexico MPS 252404
2007 09 22.07126 01 45 16.06 +01 02 18.7 18.5 V A50 – Andrushivka Astronomical Observatory MPS 218847
2007 09 22.07286 01 45 15.99 +01 02 18.6 18.6 V A50 – Andrushivka Astronomical Observatory MPS 218847
2007 09 22.07447 01 45 15.93 +01 02 18.1 18.4 V A50 – Andrushivka Astronomical Observatory MPS 218847
2007 09 22.09208 01 45 15.20 +01 02 16.6 18.6 V A50 – Andrushivka Astronomical Observatory MPS 218847
2007 10 07.25880 01 32 41.22 +00 35 48.7 18.1   704 – Lincoln Laboratory ETS, New Mexico MPS 252404
2007 10 07.26985 01 32 40.52 +00 35 47.4 18.7   704 – Lincoln Laboratory ETS, New Mexico MPS 252404
2007 10 07.28079 01 32 39.88 +00 35 46.3 18.5   704 – Lincoln Laboratory ETS, New Mexico MPS 252404
2007 10 07.29171 01 32 39.17 +00 35 45.8 18.7   704 – Lincoln Laboratory ETS, New Mexico MPS 252404
2007 10 07.30262 01 32 38.51 +00 35 44.5 18.4   704 – Lincoln Laboratory ETS, New Mexico MPS 252404
2007 10 08.31954 01 31 38.72 +00 34 13.6 18.2 r 699 – Lowell Observatory-LONEOS MPS 222591
2007 10 08.34148 01 31 37.37 +00 34 12.0   699 – Lowell Observatory-LONEOS MPS 222591
2007 10 08.36342 01 31 35.99 +00 34 10.1   699 – Lowell Observatory-LONEOS MPS 222591
2007 10 08.38536 01 31 34.69 +00 34 08.6   699 – Lowell Observatory-LONEOS MPS 222591
2007 10 11.23652 01 28 44.29 +00 30 25.2 18.3 V 703 – Catalina Sky Survey MPS 223534
2007 10 11.24448 01 28 43.82 +00 30 24.5 18.3 V 703 – Catalina Sky Survey MPS 223534
2007 10 11.25168 01 28 43.35 +00 30 24.1 18.2 V 703 – Catalina Sky Survey MPS 223534
2007 10 11.25881 01 28 42.88 +00 30 23.6 18.2 V 703 – Catalina Sky Survey MPS 223534
2007 10 13.24784 01 26 42.05 +00 28 15.3 18.1   704 – Lincoln Laboratory ETS, New Mexico MPS 222591
2007 10 13.25291 01 26 41.68 +00 28 15.4 18.5   704 – Lincoln Laboratory ETS, New Mexico MPS 222591
2007 10 13.25893 01 26 41.36 +00 28 15.0 18.3   704 – Lincoln Laboratory ETS, New Mexico MPS 222591
2007 10 13.26431 01 26 40.96 +00 28 15.6 18.4   704 – Lincoln Laboratory ETS, New Mexico MPS 222591
2007 10 13.27003 01 26 40.64 +00 28 14.5 18.3   704 – Lincoln Laboratory ETS, New Mexico MPS 222591
2007 10 13.27539 01 26 40.26 +00 28 14.3 17.9   704 – Lincoln Laboratory ETS, New Mexico MPS 222591
2007 10 13.28111 01 26 39.91 +00 28 13.5 18.2   704 – Lincoln Laboratory ETS, New Mexico MPS 222591
2007 10 13.28685 01 26 39.53 +00 28 13.6 18.3   704 – Lincoln Laboratory ETS, New Mexico MPS 222591
2007 10 13.29220 01 26 39.19 +00 28 12.9 18.4   704 – Lincoln Laboratory ETS, New Mexico MPS 222591
2007 10 13.29790 01 26 38.86 +00 28 13.5 18.4   704 – Lincoln Laboratory ETS, New Mexico MPS 222591
2007 10 17.25067 01 22 38.31 +00 25 18.4 18.1 r 699 – Lowell Observatory-LONEOS MPS 223534
2007 10 17.27628 01 22 36.69 +00 25 17.5 18.3 r 699 – Lowell Observatory-LONEOS MPS 223534
2007 10 17.30188 01 22 35.04 +00 25 17.2 18.3 r 699 – Lowell Observatory-LONEOS MPS 223534
2007 10 17.32748 01 22 33.46 +00 25 16.1 18.4 r 699 – Lowell Observatory-LONEOS MPS 223534
2007 10 19.24485 01 20 38.25 +00 24 39.0 18.5   704 – Lincoln Laboratory ETS, New Mexico MPS 222591
2007 10 19.24794 01 20 38.00 +00 24 37.9 18.4 V 703 – Catalina Sky Survey MPS 223534
2007 10 19.25453 01 20 37.57 +00 24 37.9 18.4 V 703 – Catalina Sky Survey MPS 223534
2007 10 19.25556 01 20 37.56 +00 24 38.6 18.5   704 – Lincoln Laboratory ETS, New Mexico MPS 222591
2007 10 19.26111 01 20 37.21 +00 24 38.3 18.3 V 703 – Catalina Sky Survey MPS 223534
